When you browse on this site, cookies collect data to enhance your experience and personalize the content and advertising you see.
Visit our Privacy Policy to learn more. By continuing to use the site, you agree to this use of cookies and data.

Météo par heure à Wigston Magna

Ce jour, 3 Juillet, Vendredi

Heure Température Précipitation Vent Pression Humidité
00:00 +12°C° 0 mm 2 m/s 752 mmHg 92%
01:00 +11°C° 0 mm 3 m/s 752 mmHg 92%
02:00 +11°C° 0 mm 3 m/s 752 mmHg 92%
03:00 +11°C° 0 mm 3 m/s 752 mmHg 92%
04:00 +11°C° 0 mm 4 m/s 752 mmHg 91%
05:00 +11°C° 0 mm 4 m/s 752 mmHg 90%
06:00 +12°C° 0 mm 4 m/s 752 mmHg 89%
07:00 +12°C° 0 mm 5 m/s 752 mmHg 88%
08:00 +12°C° 0 mm 5 m/s 752 mmHg 87%
09:00 +13°C° 0 mm 6 m/s 752 mmHg 86%
10:00 +13°C° 0 mm 6 m/s 752 mmHg 86%
11:00 +12°C° 0 mm 7 m/s 751 mmHg 85%
12:00 +14°C° 0 mm 7 m/s 751 mmHg 85%
13:00 +13°C° 0 mm 8 m/s 751 mmHg 84%
14:00 +15°C° 0 mm 8 m/s 751 mmHg 82%
15:00 +15°C° 0 mm 9 m/s 750 mmHg 81%
16:00 +15°C° 0.1 mm 8 m/s 750 mmHg 83%
17:00 +15°C° 0.1 mm 8 m/s 750 mmHg 85%
18:00 +13°C° 0.1 mm 8 m/s 750 mmHg 87%
19:00 +13°C° 0.1 mm 8 m/s 750 mmHg 88%
20:00 +14°C° 0.1 mm 7 m/s 750 mmHg 89%
21:00 +15°C° 0.1 mm 7 m/s 750 mmHg 90%
22:00 +15°C° 0.1 mm 7 m/s 750 mmHg 91%
23:00 +15°C° 0.1 mm 6 m/s 750 mmHg 92%

Demain, 4 Juillet, Samedi

Heure Température Précipitation Vent Pression Humidité
00:00 +15°C° 0.1 mm 6 m/s 750 mmHg 93%
01:00 +15°C° 0.1 mm 6 m/s 750 mmHg 94%
02:00 +15°C° 0.1 mm 6 m/s 749 mmHg 94%
03:00 +15°C° 0.1 mm 6 m/s 749 mmHg 95%
04:00 +16°C° 0.5 mm 6 m/s 749 mmHg 95%
05:00 +16°C° 0.5 mm 6 m/s 749 mmHg 95%
06:00 +16°C° 0.5 mm 6 m/s 748 mmHg 95%
07:00 +16°C° 0.4 mm 7 m/s 748 mmHg 94%
08:00 +17°C° 0.4 mm 7 m/s 748 mmHg 93%
09:00 +17°C° 0.4 mm 7 m/s 748 mmHg 92%
10:00 +17°C° 0.1 mm 7 m/s 748 mmHg 91%
11:00 +18°C° 0.1 mm 7 m/s 747 mmHg 90%
12:00 +18°C° 0.1 mm 7 m/s 747 mmHg 89%
13:00 +18°C° 0.1 mm 7 m/s 747 mmHg 87%
14:00 +18°C° 0.1 mm 7 m/s 747 mmHg 85%
15:00 +18°C° 0.1 mm 7 m/s 747 mmHg 83%
16:00 +18°C° 0 mm 7 m/s 748 mmHg 84%
17:00 +19°C° 0 mm 6 m/s 748 mmHg 84%
18:00 +17°C° 0 mm 5 m/s 748 mmHg 85%
19:00 +17°C° 0 mm 5 m/s 748 mmHg 87%
20:00 +17°C° 0 mm 5 m/s 748 mmHg 88%
21:00 +16°C° 0 mm 5 m/s 749 mmHg 90%
22:00 +16°C° 0 mm 5 m/s 749 mmHg 90%
23:00 +16°C° 0 mm 5 m/s 748 mmHg 90%

Après-demain, 5 Juillet, Dimanche

Heure Température Précipitation Vent Pression Humidité
00:00 +15°C° 0 mm 6 m/s 748 mmHg 90%
01:00 +15°C° 0 mm 6 m/s 748 mmHg 88%
02:00 +15°C° 0 mm 7 m/s 747 mmHg 87%
03:00 +15°C° 0 mm 7 m/s 747 mmHg 85%
04:00 +16°C° 0 mm 8 m/s 746 mmHg 85%
05:00 +17°C° 0 mm 9 m/s 746 mmHg 85%
06:00 +17°C° 0 mm 10 m/s 745 mmHg 85%
07:00 +17°C° 0.1 mm 10 m/s 745 mmHg 82%
08:00 +18°C° 0.1 mm 11 m/s 745 mmHg 80%
09:00 +18°C° 0.1 mm 11 m/s 746 mmHg 77%
10:00 +18°C° 0.1 mm 11 m/s 746 mmHg 73%
11:00 +18°C° 0.1 mm 10 m/s 746 mmHg 68%
12:00 +18°C° 0.1 mm 10 m/s 747 mmHg 64%
13:00 +17°C° 0 mm 9 m/s 747 mmHg 65%
14:00 +17°C° 0 mm 8 m/s 747 mmHg 66%
15:00 +16°C° 0 mm 8 m/s 747 mmHg 67%
16:00 +16°C° 0 mm 7 m/s 748 mmHg 68%
17:00 +15°C° 0 mm 7 m/s 748 mmHg 69%
18:00 +15°C° 0 mm 7 m/s 748 mmHg 71%
19:00 +14°C° 0 mm 7 m/s 748 mmHg 72%
20:00 +13°C° 0 mm 6 m/s 749 mmHg 72%
21:00 +11°C° 0 mm 6 m/s 749 mmHg 73%
22:00 +11°C° 0 mm 6 m/s 749 mmHg 73%
23:00 +10°C° 0 mm 7 m/s 749 mmHg 73%

6 Juillet, Lundi

Heure Température Précipitation Vent Pression Humidité
00:00 +10°C° 0 mm 7 m/s 749 mmHg 73%
01:00 +10°C° 0 mm 7 m/s 749 mmHg 73%
02:00 +10°C° 0 mm 7 m/s 749 mmHg 74%
03:00 +10°C° 0 mm 7 m/s 749 mmHg 74%
04:00 +10°C° 0 mm 7 m/s 749 mmHg 75%
05:00 +10°C° 0 mm 8 m/s 750 mmHg 76%
06:00 +10°C° 0 mm 8 m/s 750 mmHg 77%
07:00 +11°C° 0.1 mm 8 m/s 751 mmHg 76%
08:00 +12°C° 0.1 mm 8 m/s 752 mmHg 75%
09:00 +13°C° 0.1 mm 9 m/s 753 mmHg 74%
10:00 +15°C° 0.1 mm 8 m/s 754 mmHg 71%
11:00 +16°C° 0.1 mm 8 m/s 754 mmHg 68%
12:00 +17°C° 0.1 mm 7 m/s 755 mmHg 65%
13:00 +17°C° 0.1 mm 7 m/s 756 mmHg 65%
14:00 +17°C° 0.1 mm 7 m/s 756 mmHg 64%
15:00 +17°C° 0.1 mm 7 m/s 757 mmHg 63%
16:00 +16°C° 0 mm 6 m/s 757 mmHg 65%
17:00 +16°C° 0 mm 6 m/s 758 mmHg 66%
18:00 +15°C° 0 mm 5 m/s 758 mmHg 68%
19:00 +13°C° 0 mm 4 m/s 759 mmHg 71%
20:00 +12°C° 0 mm 4 m/s 759 mmHg 74%
21:00 +10°C° 0 mm 3 m/s 759 mmHg 78%
22:00 +10°C° 0 mm 3 m/s 760 mmHg 79%
23:00 +9°C° 0 mm 3 m/s 760 mmHg 81%

7 Juillet, Mardi

Heure Température Précipitation Vent Pression Humidité
00:00 +8°C° 0 mm 3 m/s 760 mmHg 82%
01:00 +8°C° 0 mm 3 m/s 760 mmHg 85%
02:00 +8°C° 0 mm 3 m/s 760 mmHg 88%
03:00 +7°C° 0 mm 3 m/s 760 mmHg 91%
04:00 +8°C° 0 mm 3 m/s 760 mmHg 89%
05:00 +9°C° 0 mm 3 m/s 760 mmHg 86%
06:00 +10°C° 0 mm 3 m/s 760 mmHg 84%
07:00 +12°C° 0 mm 3 m/s 760 mmHg 79%
08:00 +13°C° 0 mm 3 m/s 760 mmHg 75%
09:00 +16°C° 0 mm 3 m/s 760 mmHg 70%
10:00 +17°C° 0 mm 3 m/s 760 mmHg 67%
11:00 +18°C° 0 mm 3 m/s 760 mmHg 64%
12:00 +19°C° 0 mm 3 m/s 760 mmHg 61%
13:00 +19°C° 0 mm 3 m/s 760 mmHg 61%
14:00 +19°C° 0 mm 3 m/s 760 mmHg 61%
15:00 +19°C° 0 mm 3 m/s 760 mmHg 61%
16:00 +19°C° 0 mm 3 m/s 759 mmHg 64%
17:00 +19°C° 0 mm 2 m/s 759 mmHg 67%
18:00 +19°C° 0 mm 2 m/s 759 mmHg 70%
19:00 +18°C° 0 mm 1 m/s 759 mmHg 74%
20:00 +16°C° 0 mm 1 m/s 759 mmHg 78%
21:00 +14°C° 0 mm 1 m/s 759 mmHg 82%
22:00 +14°C° 0 mm 1 m/s 759 mmHg 84%
23:00 +13°C° 0 mm 1 m/s 759 mmHg 85%

8 Juillet, Mercredi

Heure Température Précipitation Vent Pression Humidité
00:00 +12°C° 0 mm 1 m/s 759 mmHg 86%
01:00 +12°C° 0 mm 1 m/s 759 mmHg 87%
02:00 +12°C° 0 mm 1 m/s 758 mmHg 87%
03:00 +12°C° 0 mm 2 m/s 758 mmHg 88%
04:00 +12°C° 0 mm 2 m/s 758 mmHg 86%
05:00 +13°C° 0 mm 2 m/s 758 mmHg 85%
06:00 +13°C° 0 mm 3 m/s 758 mmHg 83%
07:00 +14°C° 0 mm 3 m/s 758 mmHg 77%
08:00 +16°C° 0 mm 3 m/s 757 mmHg 71%
09:00 +18°C° 0 mm 4 m/s 757 mmHg 65%
10:00 +18°C° 0 mm 4 m/s 757 mmHg 63%
11:00 +19°C° 0 mm 4 m/s 757 mmHg 61%
12:00 +20°C° 0 mm 5 m/s 757 mmHg 59%
13:00 +20°C° 0 mm 5 m/s 756 mmHg 60%
14:00 +21°C° 0 mm 5 m/s 756 mmHg 62%
15:00 +21°C° 0 mm 5 m/s 755 mmHg 63%
16:00 +21°C° 0 mm 5 m/s 755 mmHg 66%
17:00 +20°C° 0 mm 4 m/s 755 mmHg 68%
18:00 +20°C° 0 mm 4 m/s 754 mmHg 71%
19:00 +18°C° 0 mm 4 m/s 754 mmHg 74%
20:00 +16°C° 0 mm 3 m/s 754 mmHg 77%
21:00 +14°C° 0 mm 3 m/s 754 mmHg 80%
22:00 +13°C° 0 mm 3 m/s 754 mmHg 79%
23:00 +13°C° 0 mm 3 m/s 754 mmHg 79%
Voir plus